Year,Month,Day,Hour,Minute,Value (Times are PST for temperature in C)
2005,06,24,00,00,14.20
2005,06,24,00,01,14.20
2005,06,24,00,02,14.20
2005,06,24,00,03,14.20
2005,06,24,00,04,14.20
2005,06,24,00,05,14.20
2005,06,24,00,06,14.20
2005,06,24,00,07,14.20
2005,06,24,00,08,14.20
2005,06,24,00,09,14.20
2005,06,24,00,10,14.20
2005,06,24,00,11,14.20
2005,06,24,00,12,14.20
2005,06,24,00,13,14.20
2005,06,24,00,14,14.20
2005,06,24,00,15,14.20
2005,06,24,00,16,14.20
2005,06,24,00,17,14.20
2005,06,24,00,18,14.20
2005,06,24,00,19,14.20
2005,06,24,00,20,14.20
2005,06,24,00,21,14.20
2005,06,24,00,22,14.20
2005,06,24,00,23,14.20
2005,06,24,00,24,14.20
2005,06,24,00,25,14.20
2005,06,24,00,26,14.20
2005,06,24,00,27,14.20
2005,06,24,00,28,14.20
2005,06,24,00,29,14.10
2005,06,24,00,30,14.10
2005,06,24,00,31,14.00
2005,06,24,00,32,14.00
2005,06,24,00,33,13.90
2005,06,24,00,34,13.90
2005,06,24,00,35,13.90
2005,06,24,00,36,13.80
2005,06,24,00,37,13.80
2005,06,24,00,38,13.80
2005,06,24,00,39,13.80
2005,06,24,00,40,13.80
2005,06,24,00,41,13.80
2005,06,24,00,42,13.70
2005,06,24,00,43,13.70
2005,06,24,00,44,13.70
2005,06,24,00,45,13.70
2005,06,24,00,46,13.70
2005,06,24,00,47,13.70
2005,06,24,00,48,13.70
2005,06,24,00,49,13.70
2005,06,24,00,50,13.70
2005,06,24,00,51,13.70
2005,06,24,00,52,13.70
2005,06,24,00,53,13.70
2005,06,24,00,54,13.70
2005,06,24,00,55,13.70
2005,06,24,00,56,13.70
2005,06,24,00,57,13.70
2005,06,24,00,58,13.70
2005,06,24,00,59,13.70
2005,06,24,01,00,13.70
2005,06,24,01,01,13.70
2005,06,24,01,02,13.70
2005,06,24,01,03,13.70
2005,06,24,01,04,13.70
2005,06,24,01,05,13.70
2005,06,24,01,06,13.60
2005,06,24,01,07,13.60
2005,06,24,01,08,13.60
2005,06,24,01,09,13.60
2005,06,24,01,10,13.60
2005,06,24,01,11,13.60
2005,06,24,01,12,13.50
2005,06,24,01,13,13.50
2005,06,24,01,14,13.50
2005,06,24,01,15,13.50
2005,06,24,01,16,13.50
2005,06,24,01,17,13.50
2005,06,24,01,18,13.50
2005,06,24,01,19,13.50
2005,06,24,01,20,13.50
2005,06,24,01,21,13.50
2005,06,24,01,22,13.50
2005,06,24,01,23,13.50
2005,06,24,01,24,13.50
2005,06,24,01,25,13.50
2005,06,24,01,26,13.50
2005,06,24,01,27,13.50
2005,06,24,01,28,13.50
2005,06,24,01,29,13.50
2005,06,24,01,30,13.40
2005,06,24,01,31,13.40
2005,06,24,01,32,13.40
2005,06,24,01,33,13.40
2005,06,24,01,34,13.40
2005,06,24,01,35,13.40
2005,06,24,01,36,13.40
2005,06,24,01,37,13.40
2005,06,24,01,38,13.40
2005,06,24,01,39,13.40
2005,06,24,01,40,13.40
2005,06,24,01,41,13.40
2005,06,24,01,42,13.40
2005,06,24,01,43,13.40
2005,06,24,01,44,13.40
2005,06,24,01,45,13.40
2005,06,24,01,46,13.40
2005,06,24,01,47,13.40
2005,06,24,01,48,13.40
2005,06,24,01,49,13.40
2005,06,24,01,50,13.40
2005,06,24,01,51,13.40
2005,06,24,01,52,13.40
2005,06,24,01,53,13.40
2005,06,24,01,54,13.40
2005,06,24,01,55,13.40
2005,06,24,01,56,13.30
2005,06,24,01,57,13.30
2005,06,24,01,58,13.30
2005,06,24,01,59,13.30
2005,06,24,02,00,13.30
2005,06,24,02,01,13.40
2005,06,24,02,02,13.40
2005,06,24,02,03,13.50
2005,06,24,02,04,13.50
2005,06,24,02,05,13.50
2005,06,24,02,06,13.50
2005,06,24,02,07,13.50
2005,06,24,02,08,13.60
2005,06,24,02,09,13.70
2005,06,24,02,10,13.70
2005,06,24,02,11,13.70
2005,06,24,02,12,13.70
2005,06,24,02,13,13.70
2005,06,24,02,14,13.70
2005,06,24,02,15,13.70
2005,06,24,02,16,13.70
2005,06,24,02,17,13.70
2005,06,24,02,18,13.70
2005,06,24,02,19,13.80
2005,06,24,02,20,13.80
2005,06,24,02,21,13.80
2005,06,24,02,22,13.80
2005,06,24,02,23,13.80
2005,06,24,02,24,13.80
2005,06,24,02,25,13.80
2005,06,24,02,26,13.80
2005,06,24,02,27,13.80
2005,06,24,02,28,13.70
2005,06,24,02,29,13.70
2005,06,24,02,30,13.70
2005,06,24,02,31,13.70
2005,06,24,02,32,13.70
2005,06,24,02,33,13.60
2005,06,24,02,34,13.60
2005,06,24,02,35,13.60
2005,06,24,02,36,13.60
2005,06,24,02,37,13.50
2005,06,24,02,38,13.50
2005,06,24,02,39,13.50
2005,06,24,02,40,13.50
2005,06,24,02,41,13.50
2005,06,24,02,42,13.50
2005,06,24,02,43,13.50
2005,06,24,02,44,13.50
2005,06,24,02,45,13.60
2005,06,24,02,46,13.60
2005,06,24,02,47,13.60
2005,06,24,02,48,13.70
2005,06,24,02,49,13.70
2005,06,24,02,50,13.70
2005,06,24,02,51,13.80
2005,06,24,02,52,13.80
2005,06,24,02,53,13.80
2005,06,24,02,54,13.90
2005,06,24,02,55,13.90
2005,06,24,02,56,14.00
2005,06,24,02,57,14.00
2005,06,24,02,58,14.00
2005,06,24,02,59,14.00
2005,06,24,03,00,14.10
2005,06,24,03,01,14.10
2005,06,24,03,02,14.10
2005,06,24,03,03,14.10
2005,06,24,03,04,14.10
2005,06,24,03,05,14.10
2005,06,24,03,06,14.10
2005,06,24,03,07,14.20
2005,06,24,03,08,14.20
2005,06,24,03,09,14.20
2005,06,24,03,10,14.20
2005,06,24,03,11,14.10
2005,06,24,03,12,14.10
2005,06,24,03,13,14.10
2005,06,24,03,14,14.10
2005,06,24,03,15,14.10
2005,06,24,03,16,14.10
2005,06,24,03,17,14.10
2005,06,24,03,18,14.10
2005,06,24,03,19,14.10
2005,06,24,03,20,14.10
2005,06,24,03,21,14.10
2005,06,24,03,22,14.10
2005,06,24,03,23,14.10
2005,06,24,03,24,14.10
2005,06,24,03,25,14.10
2005,06,24,03,26,14.10
2005,06,24,03,27,14.10
2005,06,24,03,28,14.10
2005,06,24,03,29,14.10
2005,06,24,03,30,14.10
2005,06,24,03,31,14.10
2005,06,24,03,32,14.10
2005,06,24,03,33,14.10
2005,06,24,03,34,14.10
2005,06,24,03,35,14.10
2005,06,24,03,36,14.10
2005,06,24,03,37,14.10
2005,06,24,03,38,14.10
2005,06,24,03,39,14.00
2005,06,24,03,40,14.00
2005,06,24,03,41,14.00
2005,06,24,03,42,14.00
2005,06,24,03,43,14.00
2005,06,24,03,44,14.00
2005,06,24,03,45,14.00
2005,06,24,03,46,13.90
2005,06,24,03,47,13.90
2005,06,24,03,48,13.90
2005,06,24,03,49,13.90
2005,06,24,03,50,13.90
2005,06,24,03,51,13.80
2005,06,24,03,52,13.80
2005,06,24,03,53,13.70
2005,06,24,03,54,13.70
2005,06,24,03,55,13.70
2005,06,24,03,56,13.70
2005,06,24,03,57,13.60
2005,06,24,03,58,13.60
2005,06,24,03,59,13.60
2005,06,24,04,00,13.50
2005,06,24,04,01,13.50
2005,06,24,04,02,13.50
2005,06,24,04,03,13.50
2005,06,24,04,04,13.40
2005,06,24,04,05,13.40
2005,06,24,04,06,13.40
2005,06,24,04,07,13.30
2005,06,24,04,08,13.30
2005,06,24,04,09,13.30
2005,06,24,04,10,13.30
2005,06,24,04,11,13.30
2005,06,24,04,12,13.30
2005,06,24,04,13,13.30
2005,06,24,04,14,13.30
2005,06,24,04,15,13.30
2005,06,24,04,16,13.30
2005,06,24,04,17,13.30
2005,06,24,04,18,13.20
2005,06,24,04,19,13.20
2005,06,24,04,20,13.20
2005,06,24,04,21,13.10
2005,06,24,04,22,13.10
2005,06,24,04,23,13.10
2005,06,24,04,24,13.00
2005,06,24,04,25,13.00
2005,06,24,04,26,12.90
2005,06,24,04,27,12.90
2005,06,24,04,28,12.90
2005,06,24,04,29,12.90
2005,06,24,04,30,12.80
2005,06,24,04,31,12.80
2005,06,24,04,32,12.80
2005,06,24,04,33,12.80
2005,06,24,04,34,12.80
2005,06,24,04,35,12.80
2005,06,24,04,36,12.80
2005,06,24,04,37,12.80
2005,06,24,04,38,12.80
2005,06,24,04,39,12.80
2005,06,24,04,40,12.80
2005,06,24,04,41,12.80
2005,06,24,04,42,12.80
2005,06,24,04,43,12.80
2005,06,24,04,44,12.80
2005,06,24,04,45,12.80
2005,06,24,04,46,12.80
2005,06,24,04,47,12.80
2005,06,24,04,48,12.70
2005,06,24,04,49,12.70
2005,06,24,04,50,12.70
2005,06,24,04,51,12.70
2005,06,24,04,52,12.70
2005,06,24,04,53,12.80
2005,06,24,04,54,12.80
2005,06,24,04,55,12.80
2005,06,24,04,56,12.80
2005,06,24,04,57,12.80
2005,06,24,04,58,12.80
2005,06,24,04,59,12.80
2005,06,24,05,00,12.80
2005,06,24,05,01,12.80
2005,06,24,05,02,12.80
2005,06,24,05,03,12.80
2005,06,24,05,04,12.80
2005,06,24,05,05,12.80
2005,06,24,05,06,12.80
2005,06,24,05,07,12.80
2005,06,24,05,08,12.80
2005,06,24,05,09,12.70
2005,06,24,05,10,12.70
2005,06,24,05,11,12.70
2005,06,24,05,12,12.70
2005,06,24,05,13,12.70
2005,06,24,05,14,12.70
2005,06,24,05,15,12.70
2005,06,24,05,16,12.70
2005,06,24,05,17,12.70
2005,06,24,05,18,12.70
2005,06,24,05,19,12.70
2005,06,24,05,20,12.60
2005,06,24,05,21,12.60
2005,06,24,05,22,12.50
2005,06,24,05,23,12.50
2005,06,24,05,24,12.50
2005,06,24,05,25,12.40
2005,06,24,05,26,12.40
2005,06,24,05,27,12.40
2005,06,24,05,28,12.40
2005,06,24,05,29,12.30
2005,06,24,05,30,12.30
2005,06,24,05,31,12.30
2005,06,24,05,32,12.30
2005,06,24,05,33,12.30
2005,06,24,05,34,12.30
2005,06,24,05,35,12.30
2005,06,24,05,36,12.30
2005,06,24,05,37,12.30
2005,06,24,05,38,12.30
2005,06,24,05,39,12.30
2005,06,24,05,40,12.30
2005,06,24,05,41,12.30
2005,06,24,05,42,12.30
2005,06,24,05,43,12.30
2005,06,24,05,44,12.30
2005,06,24,05,45,12.30
2005,06,24,05,46,12.30
2005,06,24,05,47,12.30
2005,06,24,05,48,12.30
2005,06,24,05,49,12.40
2005,06,24,05,50,12.40
2005,06,24,05,51,12.40
2005,06,24,05,52,12.40
2005,06,24,05,53,12.50
2005,06,24,05,54,12.50
2005,06,24,05,55,12.50
2005,06,24,05,56,12.50
2005,06,24,05,57,12.60
2005,06,24,05,58,12.60
2005,06,24,05,59,12.60
2005,06,24,06,00,12.70
2005,06,24,06,01,12.70
2005,06,24,06,02,12.70
2005,06,24,06,03,12.80
2005,06,24,06,04,12.80
2005,06,24,06,05,12.80
2005,06,24,06,06,12.90
2005,06,24,06,07,12.90
2005,06,24,06,08,13.00
2005,06,24,06,09,13.00
2005,06,24,06,10,13.10
2005,06,24,06,11,13.10
2005,06,24,06,12,13.20
2005,06,24,06,13,13.20
2005,06,24,06,14,13.20
2005,06,24,06,15,13.30
2005,06,24,06,16,13.30
2005,06,24,06,17,13.30
2005,06,24,06,18,13.40
2005,06,24,06,19,13.40
2005,06,24,06,20,13.40
2005,06,24,06,21,13.50
2005,06,24,06,22,13.50
2005,06,24,06,23,13.60
2005,06,24,06,24,13.70
2005,06,24,06,25,13.70
2005,06,24,06,26,13.80
2005,06,24,06,27,13.90
2005,06,24,06,28,13.90
2005,06,24,06,29,13.90
2005,06,24,06,30,13.90
2005,06,24,06,31,13.90
2005,06,24,06,32,13.90
2005,06,24,06,33,13.90
2005,06,24,06,34,13.90
2005,06,24,06,35,13.90
2005,06,24,06,36,13.90
2005,06,24,06,37,13.90
2005,06,24,06,38,13.90
2005,06,24,06,39,14.00
2005,06,24,06,40,14.10
2005,06,24,06,41,14.20
2005,06,24,06,42,14.20
2005,06,24,06,43,14.30
2005,06,24,06,44,14.40
2005,06,24,06,45,14.50
2005,06,24,06,46,14.50
2005,06,24,06,47,14.50
2005,06,24,06,48,14.50
2005,06,24,06,49,14.50
2005,06,24,06,50,14.50
2005,06,24,06,51,14.50
2005,06,24,06,52,14.50
2005,06,24,06,53,14.50
2005,06,24,06,54,14.50
2005,06,24,06,55,14.50
2005,06,24,06,56,14.50
2005,06,24,06,57,14.50
2005,06,24,06,58,14.60
2005,06,24,06,59,14.60
2005,06,24,07,00,14.60
2005,06,24,07,01,14.60
2005,06,24,07,02,14.70
2005,06,24,07,03,14.70
2005,06,24,07,04,14.80
2005,06,24,07,05,14.80
2005,06,24,07,06,14.80
2005,06,24,07,07,14.90
2005,06,24,07,08,14.90
2005,06,24,07,09,15.00
2005,06,24,07,10,15.00
2005,06,24,07,11,15.10
2005,06,24,07,12,15.10
2005,06,24,07,13,15.20
2005,06,24,07,14,15.20
2005,06,24,07,15,15.20
2005,06,24,07,16,15.20
2005,06,24,07,17,15.30
2005,06,24,07,18,15.30
2005,06,24,07,19,15.40
2005,06,24,07,20,15.40
2005,06,24,07,21,15.50
2005,06,24,07,22,15.50
2005,06,24,07,23,15.50
2005,06,24,07,24,15.50
2005,06,24,07,25,15.50
2005,06,24,07,26,15.60
2005,06,24,07,27,15.60
2005,06,24,07,28,15.60
2005,06,24,07,29,15.60
2005,06,24,07,30,15.60
2005,06,24,07,31,15.70
2005,06,24,07,32,15.70
2005,06,24,07,33,15.70
2005,06,24,07,34,15.70
2005,06,24,07,35,15.80
2005,06,24,07,36,15.80
2005,06,24,07,37,15.80
2005,06,24,07,38,15.80
2005,06,24,07,39,15.80
2005,06,24,07,40,15.90
2005,06,24,07,41,16.00
2005,06,24,07,42,16.10
2005,06,24,07,43,16.10
2005,06,24,07,44,16.10
2005,06,24,07,45,16.10
2005,06,24,07,46,16.20
2005,06,24,07,47,16.20
2005,06,24,07,48,16.30
2005,06,24,07,49,16.30
2005,06,24,07,50,16.30
2005,06,24,07,51,16.30
2005,06,24,07,52,16.30
2005,06,24,07,53,16.30
2005,06,24,07,54,16.30
2005,06,24,07,55,16.30
2005,06,24,07,56,16.30
2005,06,24,07,57,16.30
2005,06,24,07,58,16.30
2005,06,24,07,59,16.30
2005,06,24,08,00,16.30
2005,06,24,08,01,16.20
2005,06,24,08,02,16.20
2005,06,24,08,03,16.30
2005,06,24,08,04,16.30
2005,06,24,08,05,16.30
2005,06,24,08,06,16.40
2005,06,24,08,07,16.40
2005,06,24,08,08,16.30
2005,06,24,08,09,16.30
2005,06,24,08,10,16.30
2005,06,24,08,11,16.30
2005,06,24,08,12,16.30
2005,06,24,08,13,16.30
2005,06,24,08,14,16.30
2005,06,24,08,15,16.30
2005,06,24,08,16,16.40
2005,06,24,08,17,16.40
2005,06,24,08,18,16.40
2005,06,24,08,19,16.40
2005,06,24,08,20,16.40
2005,06,24,08,21,16.40
2005,06,24,08,22,16.40
2005,06,24,08,23,16.50
2005,06,24,08,24,16.60
2005,06,24,08,25,16.60
2005,06,24,08,26,16.60
2005,06,24,08,27,16.70
2005,06,24,08,28,16.70
2005,06,24,08,29,16.70
2005,06,24,08,30,16.70
2005,06,24,08,31,16.70
2005,06,24,08,32,16.70
2005,06,24,08,33,16.80
2005,06,24,08,34,16.80
2005,06,24,08,35,16.80
2005,06,24,08,36,16.90
2005,06,24,08,37,17.00
2005,06,24,08,38,17.10
2005,06,24,08,39,17.20
2005,06,24,08,40,17.30
2005,06,24,08,41,17.30
2005,06,24,08,42,17.30
2005,06,24,08,43,17.30
2005,06,24,08,44,17.40
2005,06,24,08,45,17.40
2005,06,24,08,46,17.50
2005,06,24,08,47,17.50
2005,06,24,08,48,17.50
2005,06,24,08,49,17.60
2005,06,24,08,50,17.60
2005,06,24,08,51,17.60
2005,06,24,08,52,17.60
2005,06,24,08,53,17.60
2005,06,24,08,54,17.60
2005,06,24,08,55,17.60
2005,06,24,08,56,17.50
2005,06,24,08,57,17.40
2005,06,24,08,58,17.30
2005,06,24,08,59,17.30
2005,06,24,09,00,17.10
2005,06,24,09,01,17.00
2005,06,24,09,02,16.80
2005,06,24,09,03,16.70
2005,06,24,09,04,16.70
2005,06,24,09,05,16.70
2005,06,24,09,06,16.60
2005,06,24,09,07,16.60
2005,06,24,09,08,16.60
2005,06,24,09,09,16.60
2005,06,24,09,10,16.60
2005,06,24,09,11,16.60
2005,06,24,09,12,16.60
2005,06,24,09,13,16.60
2005,06,24,09,14,16.60
2005,06,24,09,15,16.70
2005,06,24,09,16,16.70
2005,06,24,09,17,16.70
2005,06,24,09,18,16.60
2005,06,24,09,19,16.60
2005,06,24,09,20,16.60
2005,06,24,09,21,16.70
2005,06,24,09,22,16.70
2005,06,24,09,23,16.70
2005,06,24,09,24,16.70
2005,06,24,09,25,16.80
2005,06,24,09,26,16.80
2005,06,24,09,27,16.70
2005,06,24,09,28,16.80
2005,06,24,09,29,16.80
2005,06,24,09,30,16.80
2005,06,24,09,31,17.00
2005,06,24,09,32,17.10
2005,06,24,09,33,17.20
2005,06,24,09,34,17.30
2005,06,24,09,35,17.30
2005,06,24,09,36,17.40
2005,06,24,09,37,17.40
2005,06,24,09,38,17.50
2005,06,24,09,39,17.50
2005,06,24,09,40,17.50
2005,06,24,09,41,17.50
2005,06,24,09,42,17.50
2005,06,24,09,43,17.60
2005,06,24,09,44,17.70
2005,06,24,09,45,17.70
2005,06,24,09,46,17.80
2005,06,24,09,47,17.80
2005,06,24,09,48,17.80
2005,06,24,09,49,17.90
2005,06,24,09,50,17.90
2005,06,24,09,51,17.90
2005,06,24,09,52,17.90
2005,06,24,09,53,17.90
2005,06,24,09,54,17.90
2005,06,24,09,55,17.90
2005,06,24,09,56,17.80
2005,06,24,09,57,17.70
2005,06,24,09,58,17.60
2005,06,24,09,59,17.60
2005,06,24,10,00,17.60
2005,06,24,10,01,17.50
2005,06,24,10,02,17.40
2005,06,24,10,03,17.40
2005,06,24,10,04,17.40
2005,06,24,10,05,17.50
2005,06,24,10,06,17.50
2005,06,24,10,07,17.50
2005,06,24,10,08,17.50
2005,06,24,10,09,17.50
2005,06,24,10,10,17.50
2005,06,24,10,11,17.50
2005,06,24,10,12,17.60
2005,06,24,10,13,17.60
2005,06,24,10,14,17.60
2005,06,24,10,15,17.60
2005,06,24,10,16,17.70
2005,06,24,10,17,17.70
2005,06,24,10,18,17.70
2005,06,24,10,19,17.70
2005,06,24,10,20,17.70
2005,06,24,10,21,17.70
2005,06,24,10,22,17.70
2005,06,24,10,23,17.70
2005,06,24,10,24,17.60
2005,06,24,10,25,17.70
2005,06,24,10,26,17.70
2005,06,24,10,27,17.80
2005,06,24,10,28,17.80
2005,06,24,10,29,17.90
2005,06,24,10,30,17.90
2005,06,24,10,31,17.90
2005,06,24,10,32,17.80
2005,06,24,10,33,17.80
2005,06,24,10,34,17.80
2005,06,24,10,35,17.70
2005,06,24,10,36,17.60
2005,06,24,10,37,17.60
2005,06,24,10,38,17.70
2005,06,24,10,39,17.60
2005,06,24,10,40,17.60
2005,06,24,10,41,17.50
2005,06,24,10,42,17.50
2005,06,24,10,43,17.40
2005,06,24,10,44,17.40
2005,06,24,10,45,17.30
2005,06,24,10,46,17.30
2005,06,24,10,47,17.40
2005,06,24,10,48,17.40
2005,06,24,10,49,17.50
2005,06,24,10,50,17.50
2005,06,24,10,51,17.60
2005,06,24,10,52,17.70
2005,06,24,10,53,17.80
2005,06,24,10,54,17.80
2005,06,24,10,55,17.80
2005,06,24,10,56,17.90
2005,06,24,10,57,17.90
2005,06,24,10,58,17.90
2005,06,24,10,59,17.90
2005,06,24,11,00,17.90
2005,06,24,11,01,17.90
2005,06,24,11,02,17.90
2005,06,24,11,03,17.90
2005,06,24,11,04,17.90
2005,06,24,11,05,17.90
2005,06,24,11,06,17.90
2005,06,24,11,07,17.90
2005,06,24,11,08,17.90
2005,06,24,11,09,17.90
2005,06,24,11,10,17.90
2005,06,24,11,11,17.90
2005,06,24,11,12,17.80
2005,06,24,11,13,17.80
2005,06,24,11,14,17.70
2005,06,24,11,15,17.60
2005,06,24,11,16,17.60
2005,06,24,11,17,17.60
2005,06,24,11,18,17.60
2005,06,24,11,19,17.70
2005,06,24,11,20,17.70
2005,06,24,11,21,17.60
2005,06,24,11,22,17.50
2005,06,24,11,23,17.50
2005,06,24,11,24,17.50
2005,06,24,11,25,17.60
2005,06,24,11,26,17.50
2005,06,24,11,27,17.50
2005,06,24,11,28,17.40
2005,06,24,11,29,17.40
2005,06,24,11,30,17.30
2005,06,24,11,31,17.40
2005,06,24,11,32,17.40
2005,06,24,11,33,17.40
2005,06,24,11,34,17.40
2005,06,24,11,35,17.40
2005,06,24,11,36,17.40
2005,06,24,11,37,17.40
2005,06,24,11,38,17.40
2005,06,24,11,39,17.50
2005,06,24,11,40,17.50
2005,06,24,11,41,17.50
2005,06,24,11,42,17.60
2005,06,24,11,43,17.60
2005,06,24,11,44,17.70
2005,06,24,11,45,17.80
2005,06,24,11,46,17.90
2005,06,24,11,47,18.10
2005,06,24,11,48,18.20
2005,06,24,11,49,18.30
2005,06,24,11,50,18.30
2005,06,24,11,51,18.30
2005,06,24,11,52,18.20
2005,06,24,11,53,18.20
2005,06,24,11,54,18.20
2005,06,24,11,55,18.30
2005,06,24,11,56,18.30
2005,06,24,11,57,18.20
2005,06,24,11,58,18.20
2005,06,24,11,59,18.20
2005,06,24,12,00,18.20
2005,06,24,12,01,18.10
2005,06,24,12,02,18.10
2005,06,24,12,03,18.10
2005,06,24,12,04,18.20
2005,06,24,12,05,18.30
2005,06,24,12,06,18.40
2005,06,24,12,07,18.50
2005,06,24,12,08,18.50
2005,06,24,12,09,18.50
2005,06,24,12,10,18.60
2005,06,24,12,11,18.60
2005,06,24,12,12,18.60
2005,06,24,12,13,18.70
2005,06,24,12,14,18.70
2005,06,24,12,15,18.70
2005,06,24,12,16,18.80
2005,06,24,12,17,18.80
2005,06,24,12,18,18.80
2005,06,24,12,19,18.90
2005,06,24,12,20,18.90
2005,06,24,12,21,18.90
2005,06,24,12,22,19.00
2005,06,24,12,23,19.10
2005,06,24,12,24,19.10
2005,06,24,12,25,19.10
2005,06,24,12,26,19.10
2005,06,24,12,27,19.10
2005,06,24,12,28,19.00
2005,06,24,12,29,18.90
2005,06,24,12,30,18.90
2005,06,24,12,31,18.90
2005,06,24,12,32,18.90
2005,06,24,12,33,18.90
2005,06,24,12,34,18.90
2005,06,24,12,35,18.80
2005,06,24,12,36,18.60
2005,06,24,12,37,18.40
2005,06,24,12,38,18.40
2005,06,24,12,39,18.40
2005,06,24,12,40,18.50
2005,06,24,12,41,18.50
2005,06,24,12,42,18.60
2005,06,24,12,43,18.60
2005,06,24,12,44,18.60
2005,06,24,12,45,18.60
2005,06,24,12,46,18.60
2005,06,24,12,47,18.70
2005,06,24,12,48,18.70
2005,06,24,12,49,18.80
2005,06,24,12,50,18.90
2005,06,24,12,51,19.10
2005,06,24,12,52,19.20
2005,06,24,12,53,19.20
2005,06,24,12,54,19.30
2005,06,24,12,55,19.30
2005,06,24,12,56,19.30
2005,06,24,12,57,19.40
2005,06,24,12,58,19.40
2005,06,24,12,59,19.30
2005,06,24,13,00,19.20
2005,06,24,13,01,19.20
2005,06,24,13,02,19.20
2005,06,24,13,03,19.20
2005,06,24,13,04,19.30
2005,06,24,13,05,19.40
2005,06,24,13,06,19.40
2005,06,24,13,07,19.40
2005,06,24,13,08,19.40
2005,06,24,13,09,19.30
2005,06,24,13,10,19.30
2005,06,24,13,11,19.30
2005,06,24,13,12,19.20
2005,06,24,13,13,19.30
2005,06,24,13,14,19.30
2005,06,24,13,15,19.20
2005,06,24,13,16,19.10
2005,06,24,13,17,19.10
2005,06,24,13,18,19.20
2005,06,24,13,19,19.40
2005,06,24,13,20,19.40
2005,06,24,13,21,19.40
2005,06,24,13,22,19.50
2005,06,24,13,23,19.60
2005,06,24,13,24,19.70
2005,06,24,13,25,19.80
2005,06,24,13,26,20.00
2005,06,24,13,27,20.10
2005,06,24,13,28,20.20
2005,06,24,13,29,20.20
2005,06,24,13,30,20.20
2005,06,24,13,31,20.20
2005,06,24,13,32,20.20
2005,06,24,13,33,20.20
2005,06,24,13,34,20.20
2005,06,24,13,35,20.10
2005,06,24,13,36,20.10
2005,06,24,13,37,20.00
2005,06,24,13,38,20.00
2005,06,24,13,39,20.10
2005,06,24,13,40,20.20
2005,06,24,13,41,20.20
2005,06,24,13,42,20.20
2005,06,24,13,43,20.20
2005,06,24,13,44,20.20
2005,06,24,13,45,20.30
2005,06,24,13,46,20.40
2005,06,24,13,47,20.70
2005,06,24,13,48,20.90
2005,06,24,13,49,21.10
2005,06,24,13,50,21.30
2005,06,24,13,51,21.30
2005,06,24,13,52,21.30
2005,06,24,13,53,21.30
2005,06,24,13,54,21.30
2005,06,24,13,55,21.40
2005,06,24,13,56,21.40
2005,06,24,13,57,21.40
2005,06,24,13,58,21.50
2005,06,24,13,59,21.60
2005,06,24,14,00,21.60
2005,06,24,14,01,21.80
2005,06,24,14,02,21.80
2005,06,24,14,03,21.70
2005,06,24,14,04,21.80
2005,06,24,14,05,21.80
2005,06,24,14,06,21.80
2005,06,24,14,07,21.70
2005,06,24,14,08,21.60
2005,06,24,14,09,21.60
2005,06,24,14,10,21.60
2005,06,24,14,11,21.70
2005,06,24,14,12,21.80
2005,06,24,14,13,21.80
2005,06,24,14,14,21.80
2005,06,24,14,15,21.70
2005,06,24,14,16,21.70
2005,06,24,14,17,21.70
2005,06,24,14,18,21.90
2005,06,24,14,19,22.00
2005,06,24,14,20,22.00
2005,06,24,14,21,21.80
2005,06,24,14,22,21.60
2005,06,24,14,23,21.60
2005,06,24,14,24,21.70
2005,06,24,14,25,21.70
2005,06,24,14,26,21.60
2005,06,24,14,27,21.70
2005,06,24,14,28,21.70
2005,06,24,14,29,21.70
2005,06,24,14,30,21.60
2005,06,24,14,31,21.60
2005,06,24,14,32,21.60
2005,06,24,14,33,21.60
2005,06,24,14,34,21.70
2005,06,24,14,35,21.60
2005,06,24,14,36,21.70
2005,06,24,14,37,21.80
2005,06,24,14,38,21.80
2005,06,24,14,39,21.90
2005,06,24,14,40,21.80
2005,06,24,14,41,21.80
2005,06,24,14,42,21.80
2005,06,24,14,43,21.80
2005,06,24,14,44,21.70
2005,06,24,14,45,21.60
2005,06,24,14,46,21.50
2005,06,24,14,47,21.40
2005,06,24,14,48,21.30
2005,06,24,14,49,21.30
2005,06,24,14,50,21.30
2005,06,24,14,51,21.20
2005,06,24,14,52,21.30
2005,06,24,14,53,21.30
2005,06,24,14,54,21.30
2005,06,24,14,55,21.30
2005,06,24,14,56,21.30
2005,06,24,14,57,21.30
2005,06,24,14,58,21.30
2005,06,24,14,59,21.30
2005,06,24,15,00,21.30
2005,06,24,15,01,21.30
2005,06,24,15,02,21.30
2005,06,24,15,03,21.20
2005,06,24,15,04,21.10
2005,06,24,15,05,21.10
2005,06,24,15,06,21.20
2005,06,24,15,07,21.30
2005,06,24,15,08,21.40
2005,06,24,15,09,21.40
2005,06,24,15,10,21.40
2005,06,24,15,11,21.40
2005,06,24,15,12,21.30
2005,06,24,15,13,21.10
2005,06,24,15,14,20.90
2005,06,24,15,15,20.90
2005,06,24,15,16,21.00
2005,06,24,15,17,21.10
2005,06,24,15,18,21.10
2005,06,24,15,19,21.10
2005,06,24,15,20,21.00
2005,06,24,15,21,20.90
2005,06,24,15,22,20.70
2005,06,24,15,23,20.60
2005,06,24,15,24,20.40
2005,06,24,15,25,20.20
2005,06,24,15,26,20.10
2005,06,24,15,27,19.90
2005,06,24,15,28,19.80
2005,06,24,15,29,19.70
2005,06,24,15,30,19.60
2005,06,24,15,31,19.60
2005,06,24,15,32,19.60
2005,06,24,15,33,19.50
2005,06,24,15,34,19.60
2005,06,24,15,35,19.60
2005,06,24,15,36,19.70
2005,06,24,15,37,19.80
2005,06,24,15,38,19.80
2005,06,24,15,39,19.80
2005,06,24,15,40,19.80
2005,06,24,15,41,19.90
2005,06,24,15,42,19.90
2005,06,24,15,43,19.90
2005,06,24,15,44,19.90
2005,06,24,15,45,19.90
2005,06,24,15,46,19.80
2005,06,24,15,47,19.80
2005,06,24,15,48,19.80
2005,06,24,15,49,19.80
2005,06,24,15,50,19.70
2005,06,24,15,51,19.70
2005,06,24,15,52,19.70
2005,06,24,15,53,19.60
2005,06,24,15,54,19.60
2005,06,24,15,55,19.50
2005,06,24,15,56,19.50
2005,06,24,15,57,19.50
2005,06,24,15,58,19.50
2005,06,24,15,59,19.40
2005,06,24,16,00,19.30
2005,06,24,16,01,19.40
2005,06,24,16,02,19.40
2005,06,24,16,03,19.30
2005,06,24,16,04,19.30
2005,06,24,16,05,19.30
2005,06,24,16,06,19.20
2005,06,24,16,07,19.20
2005,06,24,16,08,19.20
2005,06,24,16,09,19.20
2005,06,24,16,10,19.30
2005,06,24,16,11,19.30
2005,06,24,16,12,19.30
2005,06,24,16,13,19.30
2005,06,24,16,14,19.40
2005,06,24,16,15,19.40
2005,06,24,16,16,19.40
2005,06,24,16,17,19.40
2005,06,24,16,18,19.50
2005,06,24,16,19,19.60
2005,06,24,16,20,19.60
2005,06,24,16,21,19.80
2005,06,24,16,22,19.80
2005,06,24,16,23,19.80
2005,06,24,16,24,19.70
2005,06,24,16,25,19.60
2005,06,24,16,26,19.60
2005,06,24,16,27,19.60
2005,06,24,16,28,19.70
2005,06,24,16,29,19.80
2005,06,24,16,30,19.80
2005,06,24,16,31,19.80
2005,06,24,16,32,19.70
2005,06,24,16,33,19.70
2005,06,24,16,34,19.70
2005,06,24,16,35,19.80
2005,06,24,16,36,19.80
2005,06,24,16,37,19.70
2005,06,24,16,38,19.70
2005,06,24,16,39,19.80
2005,06,24,16,40,19.90
2005,06,24,16,41,19.70
2005,06,24,16,42,19.60
2005,06,24,16,43,19.50
2005,06,24,16,44,19.50
2005,06,24,16,45,19.40
2005,06,24,16,46,19.40
2005,06,24,16,47,19.40
2005,06,24,16,48,19.30
2005,06,24,16,49,19.20
2005,06,24,16,50,19.00
2005,06,24,16,51,18.90
2005,06,24,16,52,18.80
2005,06,24,16,53,18.80
2005,06,24,16,54,18.90
2005,06,24,16,55,18.90
2005,06,24,16,56,18.90
2005,06,24,16,57,18.90
2005,06,24,16,58,18.90
2005,06,24,16,59,18.90
2005,06,24,17,00,18.90
2005,06,24,17,01,19.00
2005,06,24,17,02,19.00
2005,06,24,17,03,18.90
2005,06,24,17,04,18.90
2005,06,24,17,05,18.90
2005,06,24,17,06,18.90
2005,06,24,17,07,18.90
2005,06,24,17,08,18.90
2005,06,24,17,09,18.80
2005,06,24,17,10,18.80
2005,06,24,17,11,18.70
2005,06,24,17,12,18.70
2005,06,24,17,13,18.60
2005,06,24,17,14,18.60
2005,06,24,17,15,18.60
2005,06,24,17,16,18.60
2005,06,24,17,17,18.50
2005,06,24,17,18,18.50
2005,06,24,17,19,18.50